Location: N�rnberg
(49.4489°N, 11.0797°E)
Time: 16:56:07
(UTC+01:00)

ISS - Pass Details

Date: 30 March 2017
Orbit: 399 x 409 km, 51.6° (Epoch: 25 March)

Event Time Altitude Azimuth Distance (km) Brightness Sun altitude
Rises 22:24:02 0° 264° (W) 2,314 0.6 -24.4°
Reaches altitude 10° 22:26:07 10° 268° (W) 1,458 -0.4 -24.6°
Enters shadow 22:27:43 26° 276° (W) 838 -1.8 -24.8°
